Weather reports worldwide

Advertisment
Lampedusa, Italy (16490): temperature & dewpoint: 20.03.2019 20:00:00 - 26.03.2019 20:00:00 (CET)Lampedusa, Italy (16490): wind speed: 20.03.2019 20:00:00 - 26.03.2019 20:00:00 (CET)Lampedusa, Italy (16490): wind direction: 20.03.2019 20:00:00 - 26.03.2019 20:00:00 (CET)Lampedusa, Italy (16490): reduced air pressure: 20.03.2019 20:00:00 - 26.03.2019 20:00:00 (CET)Lampedusa, Italy (16490): visibility: 20.03.2019 20:00:00 - 26.03.2019 20:00:00 (CET)Lampedusa, Italy (16490): precipitation: 20.03.2019 20:00:00 - 26.03.2019 20:00:00 (CET)
Date & Time tt [°C] td [°C] ff [km/h] ff [kn] dd ppp [hPa] vv [km] rr [mm]
26.03.2019 20:00:00 15,0 12,0 8 4 SSE - 10 -
26.03.2019 19:00:00 15,0 11,9 5 3 SSE 1016,1 10 -
26.03.2019 18:00:00 16,0 11,0 4 2 SE - 10 -
26.03.2019 17:00:00 17,0 11,0 13 7 SW - 10 -
26.03.2019 16:00:00 17,0 10,2 15 8 WSW 1015,4 10 0,0
26.03.2019 15:00:00 18,0 10,0 16 9 WSW - 10 -
26.03.2019 14:00:00 18,0 11,0 16 9 WNW - 10 -
26.03.2019 13:00:00 17,7 9,9 21 11 WNW 1015,3 10 -
26.03.2019 12:00:00 17,0 9,0 22 12 NW - 10 -
26.03.2019 11:00:00 17,0 10,0 21 11 NW - 10 -
26.03.2019 10:00:00 16,6 9,6 22 12 NW 1015,4 10 0,0
26.03.2019 09:00:00 16,0 9,0 28 15 NW - 10 -
26.03.2019 08:00:00 16,0 9,0 26 14 NW - 10 -
26.03.2019 07:00:00 15,0 9,6 16 9 WNW 1014,5 30 -
26.03.2019 06:00:00 15,0 11,0 15 8 W - 10 -
26.03.2019 05:00:00 15,0 10,0 16 9 WNW - 10 -
26.03.2019 04:00:00 14,9 12,8 15 8 W 1014,1 10 0,0
26.03.2019 03:00:00 15,0 13,0 15 8 WSW - 10 -
26.03.2019 02:00:00 15,0 12,0 15 8 WSW - 10 -
26.03.2019 01:00:00 14,0 13,0 13 7 WSW - 9 -
26.03.2019 00:00:00 14,0 13,0 9 5 WSW - 6 -
25.03.2019 23:00:00 14,0 13,0 11 6 WSW - 6 -
25.03.2019 22:00:00 14,3 13,4 11 6 WSW 1015,7 8 0,0
25.03.2019 21:00:00 14,0 13,0 11 6 WSW - 8 -
25.03.2019 20:00:00 14,0 12,0 11 6 WSW - 7 -
25.03.2019 19:00:00 13,8 12,3 8 4 W 1015,8 10 -
25.03.2019 18:00:00 15,0 13,0 15 8 WSW - 10 -
25.03.2019 17:00:00 16,0 14,0 16 9 WSW - 10 -
25.03.2019 16:00:00 16,3 14,3 16 9 WSW 1016,7 10 0,0
25.03.2019 15:00:00 17,0 14,0 21 11 WSW - 10 -
25.03.2019 14:00:00 16,0 14,0 21 11 SW - 9 -
25.03.2019 13:00:00 16,6 13,8 18 10 SW 1019,0 15 -
25.03.2019 12:00:00 16,0 13,0 18 10 SW - 10 -
25.03.2019 11:00:00 16,0 14,0 15 8 SW - 10 -
25.03.2019 10:00:00 15,5 12,6 11 6 SW 1020,5 10 0,0
25.03.2019 09:00:00 15,0 13,0 11 6 SW - 10 -
25.03.2019 08:00:00 14,0 12,0 5 3 WNW - 10 -
25.03.2019 07:00:00 12,1 10,9 5 3 W 1020,7 10 -
25.03.2019 06:00:00 12,0 11,0 11 6 W - 10 -
25.03.2019 05:00:00 12,0 11,0 11 6 WNW - 9 -
25.03.2019 04:00:00 12,1 11,1 11 6 W 1021,2 9 0,0
25.03.2019 03:00:00 12,0 11,0 13 7 W - 9 -
25.03.2019 02:00:00 12,0 11,0 9 5 W - 6 -
25.03.2019 01:00:00 11,6 10,8 8 4 W 1021,9 5 -
25.03.2019 00:00:00 13,0 12,0 5 3 WSW - 8 -
24.03.2019 23:00:00 13,0 12,0 4 2 W - 9 -
24.03.2019 22:00:00 13,2 11,6 2 1 N 1022,4 10 0,0
24.03.2019 21:00:00 14,0 12,0 8 4 NNW - 10 -
24.03.2019 20:00:00 14,0 12,0 9 5 NNW - 10 -
24.03.2019 19:00:00 14,2 12,4 5 3 NW 1022,5 10 -
24.03.2019 18:00:00 15,0 13,0 13 7 NNW - 10 -
24.03.2019 17:00:00 16,0 13,0 16 9 NNW - 10 -
24.03.2019 16:00:00 16,1 13,2 15 8 NNW 1022,4 10 0,0
24.03.2019 15:00:00 16,0 14,0 15 8 NNW - 10 -
24.03.2019 14:00:00 16,0 14,0 16 9 N - 10 -
24.03.2019 13:00:00 16,7 14,0 15 8 NNW 1023,6 10 -
24.03.2019 12:00:00 16,0 14,0 15 8 NNW - 10 -
24.03.2019 11:00:00 16,0 13,0 16 9 NNW - 10 -
24.03.2019 10:00:00 15,7 13,0 15 8 N 1023,6 10 0,0
24.03.2019 09:00:00 15,0 13,0 13 7 NNW - 10 -
24.03.2019 08:00:00 14,0 13,0 11 6 NNW - 10 -
24.03.2019 07:00:00 12,0 12,0 8 4 W - 10 -
24.03.2019 06:00:00 12,0 11,0 9 5 WNW - 7 -
24.03.2019 05:00:00 12,0 11,0 11 6 W - 8 -
24.03.2019 04:00:00 12,1 11,4 9 5 W 1021,6 7 0,0
24.03.2019 03:00:00 13,0 12,0 5 3 WNW - 6 -
24.03.2019 02:00:00 13,0 12,0 5 3 NNW - 8 -
24.03.2019 01:00:00 13,3 12,0 8 4 N 1021,7 7 -
24.03.2019 00:00:00 14,0 13,0 9 5 N - 7 -
23.03.2019 23:00:00 14,0 13,0 11 6 N - 6 -
23.03.2019 22:00:00 14,5 13,4 13 7 NNE 1022,0 7 0,0
23.03.2019 21:00:00 15,0 13,0 16 9 NNE - 7 -
23.03.2019 20:00:00 15,0 13,0 15 8 NNE - 7 -
23.03.2019 19:00:00 14,7 13,5 13 7 NNE 1020,3 8 -
23.03.2019 18:00:00 15,0 13,0 15 8 NNE - 8 -
23.03.2019 17:00:00 16,0 14,0 13 7 NE - 8 -
23.03.2019 16:00:00 15,7 13,9 13 7 ENE 1019,7 8 0,0
23.03.2019 15:00:00 16,0 14,0 18 10 ENE - 9 -
23.03.2019 14:00:00 16,0 14,0 21 11 ENE - 9 -
23.03.2019 13:00:00 15,9 13,7 18 10 ENE 1019,9 8 -
23.03.2019 12:00:00 16,0 14,0 16 9 ENE - 8 -
23.03.2019 11:00:00 16,0 14,0 16 9 ENE - 10 -
23.03.2019 10:00:00 15,9 13,6 16 9 ENE 1020,0 10 0,0
23.03.2019 09:00:00 15,0 13,0 21 11 ENE - 9 -
23.03.2019 08:00:00 15,0 13,0 24 13 ENE - 9 -
23.03.2019 07:00:00 14,8 13,1 24 13 ENE 1018,6 8 -
23.03.2019 06:00:00 15,0 13,0 28 15 E - 7 -
23.03.2019 05:00:00 15,0 13,0 29 16 E - 7 -
23.03.2019 04:00:00 14,8 13,0 29 16 E 1017,5 7 0,0
23.03.2019 03:00:00 15,0 13,0 29 16 E - 6 -
23.03.2019 02:00:00 15,0 13,0 29 16 E - 8 -
23.03.2019 01:00:00 14,8 13,4 34 18 E 1018,1 5 -
23.03.2019 00:00:00 15,0 13,0 34 18 E - 7 -
22.03.2019 23:00:00 15,0 14,0 31 17 E - 7 -
22.03.2019 22:00:00 14,9 13,5 28 15 E 1018,3 7 0,0
22.03.2019 21:00:00 15,0 14,0 29 16 E - 10 -
22.03.2019 20:00:00 12,0 11,0 15 8 NNW - 10 -
22.03.2019 19:00:00 11,1 10,4 18 10 NW 1017,4 10 -
22.03.2019 18:00:00 11,0 10,0 13 7 W - 7 -
22.03.2019 17:00:00 11,0 10,0 18 10 NNW - 9 -
22.03.2019 16:00:00 11,7 10,8 11 6 N 1018,1 9 0,0
22.03.2019 15:00:00 12,0 11,0 11 6 NE - 8 -
22.03.2019 14:00:00 12,0 11,0 2 1 - - 6 -
22.03.2019 13:00:00 12,2 10,8 4 2 S 1019,8 10 -
22.03.2019 12:00:00 13,0 11,0 13 7 ESE - 10 -
22.03.2019 11:00:00 13,0 11,0 26 14 E - 10 -
22.03.2019 10:00:00 12,9 10,6 29 16 ESE 1019,3 10 0,0
22.03.2019 09:00:00 14,0 11,0 29 16 ESE - 10 -
22.03.2019 08:00:00 14,0 11,0 29 16 ESE - 10 -
22.03.2019 07:00:00 14,0 12,2 31 17 SE 1017,9 10 -
22.03.2019 06:00:00 14,0 13,0 42 23 SE - 6 -
22.03.2019 05:00:00 15,0 12,0 18 10 ENE - 10 -
22.03.2019 04:00:00 14,1 12,1 15 8 ENE 1016,9 10 0,0
22.03.2019 03:00:00 14,0 12,0 21 11 E - 10 -
22.03.2019 02:00:00 14,0 12,0 22 12 E - 10 -
22.03.2019 01:00:00 13,9 11,5 22 12 E 1017,8 10 -
22.03.2019 00:00:00 14,0 11,0 18 10 E - 10 -
21.03.2019 23:00:00 14,0 11,0 18 10 E - 10 -
21.03.2019 22:00:00 13,5 10,1 15 8 E 1017,8 10 0,0
21.03.2019 21:00:00 14,0 10,0 15 8 ESE - 10 -
21.03.2019 20:00:00 13,0 10,0 9 5 SE - 10 -
21.03.2019 19:00:00 13,0 9,3 5 3 S 1015,9 10 -
21.03.2019 18:00:00 14,0 9,0 15 8 SW - 10 -
21.03.2019 17:00:00 15,0 10,0 16 9 SSW - 10 -
21.03.2019 16:00:00 15,2 10,6 16 9 SSW 1014,4 20 0,0
21.03.2019 15:00:00 15,0 11,0 22 12 SSW - 10 -
21.03.2019 14:00:00 15,0 11,0 26 14 SW - 10 -
21.03.2019 13:00:00 15,0 12,0 24 13 SW - 10 -
21.03.2019 12:00:00 14,0 12,0 13 7 SW - 10 -
21.03.2019 11:00:00 14,0 12,0 11 6 WSW - 10 -
21.03.2019 10:00:00 12,5 11,7 2 1 N 1012,7 5 0,0
21.03.2019 09:00:00 12,0 11,0 13 7 - - 5 -
21.03.2019 08:00:00 15,0 14,0 42 23 E - 6 -
21.03.2019 07:00:00 15,5 13,6 41 22 E 1011,8 6 -
21.03.2019 06:00:00 15,0 13,0 44 24 E - 7 -
21.03.2019 05:00:00 15,0 14,0 46 25 E - 7 -
21.03.2019 04:00:00 15,1 13,3 42 23 E 1011,6 7 0,0
21.03.2019 03:00:00 15,0 13,0 46 25 E - 6 -
21.03.2019 02:00:00 15,0 14,0 41 22 E - 5 -
21.03.2019 01:00:00 15,3 13,6 35 19 E 1013,8 6 -
21.03.2019 00:00:00 15,0 13,0 39 21 E - 7 -
20.03.2019 23:00:00 15,0 13,0 41 22 E - 6 -
20.03.2019 22:00:00 16,0 13,0 44 24 E - 10 -
20.03.2019 21:00:00 15,0 13,0 44 24 E - 10 -
20.03.2019 20:00:00 16,0 13,0 46 25 E - 10 -

tt = temperature
td = dewpoint
ff = wind speed
dd = wind direction
ppp = reduced air pressure
vv = visibility
rr = precipitation

Next stations